SUSat (42730 NORAD) Tracking and Keplerian Element Data

This shows tracking and keplerian element data for the satellite.

Feedback or suggestion? Click here.




ElementValue
Catalog42730
NameSUSat
Epoch Orbit9976
Epoch Day52.6553511
Epoch Year2019
RAAN145.8208
Inclination51.6275
Eccentricity0.0004777
Argument of Perigee5.4327
Mean Anonmoly354.6733
Mean Motion15.97843696
Decay Rate0.00222598
L11 42730U 98067MK 19052.65535110 .00222598 31215-4 48387-3 0 9996
L22 42730 51.6275 145.8208 0004777 5.4327 354.6733 15.97843696 99768

Live tracking and technical data element details for SUSat (NORAD 42730). SUSat can be tracked NOW for your location showing map with azimuth and elevation plus other details from your city location.

Track the satellite on the map from your city or location and see movement details for azimuth, elevation, latitude, longitude, range, height, and movement on the map or in text.







IsCatalogInMostPopularTable: catalog: 42730, numindb: 188
Update: records affected: 1



GetName: 42730 SUSat

Hit Count: updated at: Fri, 22 Feb 2019 22:11:55 GMT